Regional Weather Roundup
Issued by NWS

Home | Current Version | Previous Version | Graphics & Text | Print | Product List | Glossary On
Versions: 1 2 3 4 5 6 7 8 9 10 11 12 13 14 15 16 17 18 19 20 21 22 23 24 25 26 27 28 29 30 31 32 33 34 35 36 37 38 39 40 41 42 43 44 45 46 47 48 49 50
000
ASUS45 KABQ 270401
RWRNM
WEATHER ROUNDUP FOR NEW MEXICO
NATIONAL WEATHER SERVICE ALBUQUERQUE NM
900 PM MST WED NOV 26 2014

NOTE: "FAIR" MEANS FEW OR NO CLOUDS BELOW 12,000 FEET AGL WITH NO
       SIGNIFICANT WEATHER OR OBSTRUCTIONS TO VISION.

      THIS PRODUCT IS RELEASED AS TWO VERSIONS.  ONE VERSION NEAR
      THE TOP OF THE HOUR CONTAINING PRELIMINARY DATA FROM ALBUQUERQUE
      AND OTHER STATIONS.  A FINAL VERSION WITH ADDITIONAL DATA IS
      ISSUED ABOUT 10 MINUTES AFTER THE HOUR.

NMZ501-503-504-510>518-270500-
NORTHWEST PLATEAU/NORTHCENTRAL MOUNTAINS

CITY           SKY/WX    TMP DP  RH WIND       PRES   REMARKS
FARMINGTON     CLEAR     40  20  44 CALM      30.40R
SANTA FE       CLEAR     34  19  54 N7        30.40R WCI  28
TAOS           PTCLDY    30  21  69 N5        30.44R WCI  25

$$
NMZ402-403-502-505>509-270500-
WESTCENTRAL MOUNTAINS/SOUTHWEST MOUNTAINS

CITY           SKY/WX    TMP DP  RH WIND       PRES   REMARKS
GALLUP         CLEAR     27  10  49 E5        30.46R WCI  22
SILVER CITY    CLEAR     41  18  38 N10       30.38R

$$
NMZ407-409-411-412-270500-
SOUTHERN DESERTS

CITY           SKY/WX    TMP DP  RH WIND       PRES   REMARKS
DEMING         CLEAR     42  16  34 NW5       30.32R
HOLLOMAN AFB   CLEAR     44  20  38 NW5       30.31R
T OR C         CLEAR     43  20  39 W7        30.34R

$$
NMZ519>523-270500-
CENTRAL VALLEYS/CENTRAL HIGHLANDS

CITY           SKY/WX    TMP DP  RH WIND       PRES   REMARKS
ALBUQUERQUE    CLEAR     50  23  34 N5        30.40R
DOUBLE EAGLE   CLEAR     48  23  37 NW14      30.40R
MORIARTY ARPT  FAIR      31  21  67 CALM      30.41R
CLINES CORNERS CLEAR     37  21  52 NW15      30.37R WCI  28
BELEN          FAIR      36  19  49 N5        30.40R WCI  32
SOCORRO        NOT AVBL

$$
NMZ524>526-539-540-270500-
SOUTHCENTRAL MOUNTAINS

CITY           SKY/WX    TMP DP  RH WIND       PRES   REMARKS
RUIDOSO        CLEAR     45  19  36 W6        30.40R

$$
NMZ527>531-270500-
NORTHEAST HIGHLANDS/NORTHEAST PLAINS

CITY           SKY/WX    TMP DP  RH WIND       PRES   REMARKS
LAS VEGAS      PTCLDY    37  21  52 NW7       30.36R WCI  32
RATON          CLEAR     34  22  61 NW5       30.32R WCI  30
CLAYTON        PTCLDY    29  22  75 SW5       30.35R WCI  24

$$
NMZ532>537-270500-
EASTCENTRAL PLAINS

CITY           SKY/WX    TMP DP  RH WIND       PRES   REMARKS
TUCUMCARI      CLEAR     34  26  72 NE8       30.34R WCI  27
CANNON AFB     CLEAR     36  25  64 E7        30.35R WCI  31
CLOVIS AIRPORT CLEAR     36  23  60 SE7       30.35R WCI  30

$$
NMZ028-029-538-270500-
SOUTHEAST PLAINS

CITY           SKY/WX    TMP DP  RH WIND       PRES   REMARKS
ROSWELL        CLEAR     44  26  49 S8        30.32R
CARLSBAD       CLEAR     45  26  47 S9        30.31R
HOBBS          CLEAR     41  28  60 CALM      30.35R


$$



USA.gov is the U.S. government's official web portal to all federal, state and local government web resources and services.